This is the latest recevied weather packets stored in our database for station/object WE1C. If no packets are shown the sender has not sent any weather packets the latest 10 day(s).
| Time | Temp. | Humidity | Pressure | Rain* | Wind** | Luminosity | Snow |
|---|---|---|---|---|---|---|---|
| 1777648447 | 11.67° C | 51% | 1039.2 hPa | 0 mm | - | 920 W/m² | - |
| 1777648143 | 10.56° C | 52% | 1039.4 hPa | 0 mm | - | 897 W/m² | - |
| 1777647839 | 11.11° C | 54% | 1039.6 hPa | 0 mm | - | 245 W/m² | - |
| 1777647536 | 11.11° C | 55% | 1039.7 hPa | 0 mm | - | 893 W/m² | - |
| 1777647233 | 11.11° C | 58% | 1039.7 hPa | 0 mm | - | 701 W/m² | - |
| 1777646930 | 10.56° C | 56% | 1039.7 hPa | 0 mm | - | 792 W/m² | - |
| 1777646625 | 10.56° C | 55% | 1039.7 hPa | 0 mm | - | 283 W/m² | - |
| 1777646322 | 10.56° C | 54% | 1039.7 hPa | 0 mm | - | 898 W/m² | - |
| 1777646019 | 10.56° C | 53% | 1039.5 hPa | 0 mm | - | 269 W/m² | - |
| 1777645715 | 11.11° C | 53% | 1039.7 hPa | 0 mm | - | 406 W/m² | - |
| 1777645412 | 10.56° C | 53% | 1039.7 hPa | 0 mm | - | 317 W/m² | - |
| 1777645108 | 10° C | 55% | 1039.6 hPa | 0 mm | - | 926 W/m² | - |
| 1777644804 | 10.56° C | 57% | 1039.9 hPa | 0 mm | - | 181 W/m² | - |
| 1777644503 | 10.56° C | 57% | 1039.8 hPa | 0 mm | - | 241 W/m² | - |
| 1777644198 | 10° C | 59% | 1039.6 hPa | 0 mm | - | 896 W/m² | - |
| 1777643894 | 10° C | 61% | 1039.5 hPa | 0 mm | - | 171 W/m² | - |
| 1777643593 | 10.56° C | 60% | 1039.5 hPa | 0 mm | - | 176 W/m² | - |
| 1777643290 | 10° C | 61% | 1039.5 hPa | 0 mm | - | 672 W/m² | - |
| 1777642986 | 9.44° C | 62% | 1039.7 hPa | 0 mm | - | 727 W/m² | - |
| 1777642682 | 8.89° C | 64% | 1039.5 hPa | 0 mm | - | 150 W/m² | - |
| 1777642380 | 8.89° C | 61% | 1039.3 hPa | 0 mm | - | 179 W/m² | - |
| 1777642076 | 9.44° C | 63% | 1039.5 hPa | 0 mm | - | 213 W/m² | - |
| 1777641772 | 9.44° C | 62% | 1039.3 hPa | 0 mm | - | 275 W/m² | - |
| 1777641472 | 9.44° C | 60% | 1039.5 hPa | 0 mm | - | 309 W/m² | - |
| 1777641168 | 10° C | 62% | 1039.4 hPa | 0 mm | - | 681 W/m² | - |
* Rain latest hour (hover to see other rain measurements)
** Current wind speed in m/s (hover to see current wind gust speed)